Overview Statistics Trail Chart Weather Telemetry Raw packets
 

This is the latest recevied weather packets stored in our database for station/object N0QV. If no packets are shown the sender has not sent any weather packets the latest 10 day(s).

<< 2 3 4 5 6 7 8 >>
Time Temp. Humidity Pressure Rain* Wind** Luminosity Snow
1788652895 25.56° C 82% 1015.7 hPa 0 mm - 32 W/m² -
1788652593 26.11° C 81% 1015.7 hPa 0 mm - 32 W/m² -
1788652288 26.11° C 81% 1015.7 hPa 0 mm - 34 W/m² -
1788651984 26.11° C 81% 1015.7 hPa 0 mm - 42 W/m² -
1788651680 26.11° C 81% 1015.8 hPa 0 mm - 48 W/m² -
1788651380 26.11° C 81% 1015.7 hPa 0 mm - 60 W/m² -
1788651074 26.11° C 81% 1015.5 hPa 0 mm - 62 W/m² -
1788650769 26.11° C 81% 1015.5 hPa 0 mm - 69 W/m² -
1788650465 26.11° C 80% 1015.7 hPa 0 mm - 56 W/m² -
1788650160 26.11° C 81% 1015.7 hPa 0 mm - 50 W/m² -
1788649857 26.11° C 80% 1015.6 hPa 0 mm - 47 W/m² -
1788649556 26.67° C 81% 1015.6 hPa 0 mm - 48 W/m² -
1788649255 26.67° C 81% 1015.7 hPa 0 mm - 49 W/m² -
1788648954 26.67° C 80% 1015.4 hPa 0 mm - 45 W/m² -
1788648649 26.67° C 79% 1015.7 hPa 0 mm - 51 W/m² -
1788648344 27.22° C 77% 1015.4 hPa 0 mm - 75 W/m² -
1788648043 27.22° C 76% 1015.2 hPa 0 mm - 97 W/m² -
1788647741 27.22° C 77% 1015.2 hPa 0 mm - 100 W/m² -
1788647437 27.22° C 77% 1015.1 hPa 0 mm - 87 W/m² -
1788647137 27.22° C 77% 1015.3 hPa 0 mm - 113 W/m² -
1788646832 27.78° C 76% 1015 hPa 0 mm - 135 W/m² -
1788646528 27.22° C 77% 1015.2 hPa 0 mm - 158 W/m² -
1788646224 27.78° C 78% 1015 hPa 0 mm - 135 W/m² -
1788645920 27.78° C 78% 1015 hPa 0 mm - 141 W/m² -
1788645616 27.78° C 78% 1015 hPa 0 mm - 187 W/m² -

* Rain latest hour (hover to see other rain measurements)
** Current wind speed in m/s (hover to see current wind gust speed)